CAPE
38 34 37 42 22 11 11 16 20 7 5 6 8 8 10 9 5 4 1 1 0 1 0 1 0 0 0 0 0 0 0 0 0 0 0 0 0 0 0 0 0 0 0 0 0 0 0
53 57 55 38 29 17 12 15 9 25 10 6 6 5 5 5 3 1 0 1 0 1 0 0 0 0 0 0 0 0 0 0 0 0 0 0 0 0 0 0 0 0 0 0 0 0 0
58 70 62 48 44 42 31 29 17 13 15 4 6 8 2 1 1 0 0 0 0 0 0 0 0 0 0 0 0 0 0 0 0 0 0 0 0 0 0 0 0 0 0 0 0 0 0
48 57 65 55 49 71 65 52 37 28 17 3 5 5 6 4 2 3 0 0 0 0 0 0 0 0 0 0 0 0 0 0 0 0 0 0 0 0 0 0 0 0 0 0 0 0 0
9 19 31 45 43 71 82 89 56 38 13 2 3 7 3 0 2 0 0 0 0 0 0 0 0 0 0 0 0 0 0 0 0 0 0 0 0 0 0 0 0 0 0 0 0 0 0
11 10 13 10 13 17 24 39 32 36 43 37 10 4 2 1 1 0 0 0 0 0 0 0 0 0 0 0 0 0 0 0 0 0 0 0 0 0 0 0 0 0 0 0 0 0 0
21 19 14 11 11 9 8 8 6 6 17 32 37 18 1 0 0 0 0 0 0 0 0 0 0 0 0 0 0 0 0 0 0 0 0 0 0 0 0 0 0 0 0 0 0 0 0
12 21 21 28 16 10 11 9 7 9 6 7 11 20 9 0 0 0 0 0 0 0 0 0 0 0 0 0 0 0 0 0 0 0 0 0 0 0 0 0 0 0 0 0 0 0 0
29 11 20 18 18 26 15 24 12 13 13 7 3 9 12 4 0 0 0 0 0 0 0 0 0 0 0 0 0 0 0 0 0 0 0 0 0 0 0 0 0 0 0 0 0 0 0
29 45 41 55 24 53 23 30 31 23 15 17 4 5 9 3 0 0 0 0 0 0 0 0 0 0 0 0 0 0 0 0 0 0 0 0 0 0 0 0 0 0 0 0 0 0 0
31 45 48 58 41 47 48 35 31 31 14 11 17 0 4 10 0 0 0 0 0 0 0 0 0 0 0 0 0 0 0 0 0 0 0 0 0 0 0 0 0 0 0 0 0 0 0
20 21 26 30 24 22 19 41 38 27 26 19 20 2 1 0 0 0 0 0 0 0 0 0 0 0 0 0 0 0 0 0 0 0 0 0 0 0 0 0 0 0 0 0 0 0 0
16 13 19 19 20 19 23 18 23 28 36 32 19 3 0 1 0 0 0 0 0 0 0 0 0 0 0 0 0 0 0 0 0 0 0 0 0 0 0 0 0 0 0 0 0 0 0
37 27 11 19 15 14 13 16 15 40 51 38 44 0 0 0 0 0 0 0 0 0 0 0 0 0 0 0 0 0 0 0 0 0 0 0 0 0 0 0 0 0 0 0 0 0 0
37 33 27 27 28 12 17 18 18 51 62 38 6 0 0 0 0 0 0 1 0 0 0 0 0 0 0 0 0 0 0 0 0 0 0 0 0 0 0 0 0 0 0 0 0 0 0
42 36 38 38 23 15 30 34 32 45 62 33 1 0 0 0 0 0 0 0 0 0 0 0 0 0 0 0 0 0 0 0 0 0 0 0 0 0 0 0 0 0 0 0 0 0 0
39 32 36 23 31 14 21 42 40 35 40 12 0 0 0 0 0 18 0 0 0 0 0 0 0 0 0 0 0 0 0 0 0 0 0 0 0 0 0 0 0 0 0 0 0 0 0
35 31 33 26 30 21 10 21 37 39 74 2 0 0 0 0 32 9 0 0 0 0 0 0 0 0 0 0 0 0 0 0 0 0 0 0 0 0 0 0 0 0 0 0 0 0 0
39 29 34 44 34 35 13 5 20 36 58 34 14 0 0 11 3 0 2 1 0 0 0 0 0 0 0 0 0 0 0 0 0 0 0 0 0 0 0 0 0 0 0 0 0 0 0
38 36 36 36 25 21 25 9 12 30 35 1 19 1 0 0 2 21 19 4 2 2 0 0 0 0 0 0 0 0 0 0 0 0 0 0 0 0 0 0 0 0 0 0 0 0 0
46 43 37 42 36 25 19 17 9 26 24 1 47 0 0 0 0 0 1 5 8 1 6 0 0 0 0 0 0 0 0 0 0 0 0 0 0 0 0 0 0 0 0 0 0 0 0
45 47 46 42 42 39 34 25 9 17 17 0 1 43 16 0 0 0 0 0 0 0 17 0 0 0 0 0 0 0 0 0 0 0 0 0 0 0 0 0 0 0 0 0 0 0 0
53 51 46 48 50 44 50 39 20 17 17 10 8 8 53 9 1 0 2 0 0 0 0 0 0 2 0 0 0 0 0 0 0 0 0 0 0 0 0 0 0 0 0 0 0 0 0
53 55 57 52 51 53 46 41 27 4 12 10 2 32 30 2 2 3 1 9 15 3 15 0 0 0 0 0 0 0 0 0 0 0 0 0 0 0 0 0 0 0 0 0 0 0 0
53 54 56 52 55 50 54 51 51 31 37 1 0 28 24 6 9 15 1 2 0 0 0 0 0 0 0 0 0 0 0 0 0 0 0 0 0 0 0 0 0 0 0 0 0 0 0
44 49 56 51 59 53 53 59 65 50 49 1 0 0 14 18 0 16 5 0 2 0 0 0 0 0 0 2 1 9 0 0 0 0 0 0 0 0 0 0 0 0 0 0 0 0 0
42 47 56 59 56 60 65 62 71 69 57 6 0 0 16 19 0 2 0 7 6 16 16 0 0 0 0 9 15 2 0 0 0 0 0 0 0 0 0 0 0 0 0 0 0 0 0
29 31 44 61 61 66 66 73 71 84 80 14 0 0 5 10 4 2 6 0 1 0 11 1 1 0 0 35 1 15 0 0 0 0 0 0 0 0 0 0 0 0 0 0 0 0 0
46 51 43 59 66 68 77 77 82 93 97 70 1 0 0 24 22 3 1 0 4 0 0 2 12 1 2 3 30 0 0 0 0 0 0 0 0 0 0 0 0 0 0 0 0 0 0
CIN
0 0 -1 -2 -7 -2 -1 0 0 0 0 0 0 0 0 0 0 0 0 0 0 0 0 0 0 0 0 0 0 0 0 0 0 0 0 0 0 0 0 0 0 0 0 0 0 0 0
0 0 0 -1 -1 -1 -2 -2 0 0 0 0 0 0 0 0 0 0 0 0 0 0 0 0 0 0 0 0 0 0 0 0 0 0 0 0 0 0 0 0 0 0 0 0 0 0 0
0 0 0 0 0 0 0 0 0 0 0 0 0 0 0 0 0 0 0 0 0 0 0 0 0 0 0 0 0 0 0 0 0 0 0 0 0 0 0 0 0 0 0 0 0 0 0
0 0 0 0 0 0 0 0 0 0 0 0 0 0 0 0 0 0 0 0 0 0 0 0 0 0 0 0 0 0 0 0 0 0 0 0 0 0 0 0 0 0 0 0 0 0 0
0 -7 -2 0 0 0 0 0 0 0 0 0 0 0 0 0 0 0 0 0 0 0 0 0 0 0 0 0 0 0 0 0 0 0 0 0 0 0 0 0 0 0 0 0 0 0 0
0 0 0 -2 -3 -11 -9 -3 -3 0 0 0 0 0 0 0 0 0 0 0 0 0 0 0 0 0 0 0 0 0 0 0 0 0 0 0 0 0 0 0 0 0 0 0 0 0 0
0 0 0 0 0 0 0 0 0 0 -3 0 0 0 0 0 0 0 0 0 0 0 0 0 0 0 0 0 0 0 0 0 0 0 0 0 0 0 0 0 0 0 0 0 0 0 0
0 0 0 0 0 0 0 0 0 0 0 0 0 0 0 0 0 0 0 0 0 0 0 0 0 0 0 0 0 0 0 0 0 0 0 0 0 0 0 0 0 0 0 0 0 0 0
0 0 0 0 0 0 0 0 0 0 0 0 0 0 0 0 0 0 0 0 0 0 0 0 0 0 0 0 0 0 0 0 0 0 0 0 0 0 0 0 0 0 0 0 0 0 0
0 0 0 0 0 0 0 0 0 0 0 0 0 0 0 0 0 0 0 0 0 0 0 0 0 0 0 0 0 0 0 0 0 0 0 0 0 0 0 0 0 0 0 0 0 0 0
0 0 0 0 0 0 0 0 0 0 0 0 0 0 0 0 0 0 0 0 0 0 0 0 0 0 0 0 0 0 0 0 0 0 0 0 0 0 0 0 0 0 0 0 0 0 0
0 0 0 0 0 0 0 0 0 0 0 0 0 0 0 0 0 0 0 0 0 0 0 0 0 0 0 0 0 0 0 0 0 0 0 0 0 0 0 0 0 0 0 0 0 0 0
0 0 0 0 0 0 0 0 0 0 0 0 0 0 0 -1 0 0 0 0 0 0 0 0 0 0 0 0 0 0 0 0 0 0 0 0 0 0 0 0 0 0 0 0 0 0 0
0 0 0 0 0 0 0 0 0 0 0 0 0 0 0 0 0 0 0 0 0 0 0 0 0 0 0 0 0 0 0 0 0 0 0 0 0 0 0 0 0 0 0 0 0 0 0
0 0 0 0 0 0 0 0 0 0 0 0 0 0 0 0 0 0 0 0 0 0 0 0 0 0 0 0 0 0 0 0 0 0 0 0 0 0 0 0 0 0 0 0 0 0 0
0 0 0 0 0 0 0 0 0 0 0 0 -1 0 0 0 0 0 0 0 0 0 0 0 0 0 0 0 0 0 0 0 0 0 0 0 0 0 0 0 0 0 0 0 0 0 0
0 0 0 0 0 0 0 0 0 0 0 0 -1 0 0 0 0 -3 0 0 0 0 0 0 0 0 0 0 0 0 0 0 0 0 0 0 0 0 0 0 0 0 0 0 0 0 0
0 0 0 0 0 0 0 0 0 0 0 -1 0 0 0 0 0 -11 -3 -1 0 0 0 0 0 0 0 0 0 0 0 0 0 0 0 0 0 0 0 0 0 0 0 0 0 0 0
0 0 0 0 0 0 0 0 0 0 0 -2 0 0 0 -7 0 0 0 0 -2 0 0 0 0 0 0 0 0 0 0 0 0 0 0 0 0 0 0 0 0 0 0 0 0 0 0
0 0 0 0 -1 0 0 0 0 0 0 -4 -1 -2 0 0 -1 -1 0 0 -4 -13 -1 0 0 0 0 0 0 0 0 0 0 0 0 0 0 0 0 0 0 0 0 0 0 0 0
0 0 0 0 0 0 0 0 0 0 0 -4 0 -12 0 0 0 0 0 0 0 -1 -7 0 0 0 0 0 0 0 0 0 0 0 0 0 0 0 0 0 0 0 0 0 0 0 0
0 0 0 0 0 0 0 -3 0 0 0 0 0 0 -1 -1 0 0 0 0 0 0 -1 0 0 0 0 0 0 0 0 0 0 0 0 0 0 0 0 0 0 0 0 0 0 0 0
0 0 0 0 0 0 0 0 -2 0 -3 -11 -2 -2 -2 -2 -3 0 -1 0 0 0 0 0 0 0 0 0 0 0 0 0 0 0 0 0 0 0 0 0 0 0 0 0 0 0 0
0 0 0 0 0 0 0 -1 0 0 -1 -19 -11 -4 0 -2 -1 -1 0 0 0 0 0 0 0 0 0 0 0 0 0 0 0 0 0 0 0 0 0 0 0 0 0 0 0 0 0
0 0 0 0 0 0 0 0 0 0 0 -1 0 -4 -2 -1 -1 0 0 0 0 -1 0 0 0 0 0 0 0 0 0 0 0 0 0 0 0 0 0 0 0 0 0 0 0 0 0
0 0 0 0 0 0 0 0 0 0 0 -1 0 -17 -4 -1 -1 -1 -5 0 0 0 0 0 0 0 0 -2 -4 0 0 0 0 0 0 0 0 0 0 0 0 0 0 0 0 0 0
0 0 0 0 0 0 0 0 0 0 0 -4 0 0 -13 0 -1 -8 -2 -1 -3 -1 -1 0 0 0 0 -1 0 -1 0 0 0 0 0 0 0 0 0 0 0 0 0 0 0 0 0
0 0 0 0 0 0 0 0 0 0 0 -9 0 0 -16 -2 -3 -1 -18 0 0 -1 -1 -1 -1 0 0 -2 0 -5 0 0 0 0 0 0 0 0 0 0 0 0 0 0 0 0 0
0 0 0 0 0 0 0 0 0 0 0 -4 -18 0 0 -8 -3 -11 -7 0 -1 -2 0 -1 -1 -3 -2 0 -1 -1 0 0 0 0 0 0 0 0 0 0 0 0 0 0 0 0 0
Wind_Speed
15 13 15 12 12 14 15 17 17 18 19 20 21 22 22 22 22 22 22 22 21 22 19 18 16 12 5 1 10 8 6 8 5 4 3 0 1 2 2 3 1 6 4 6 9 9 6
19 19 17 16 13 13 14 14 16 17 19 20 21 22 24 23 23 23 23 22 22 22 20 17 14 9 3 4 6 5 7 3 5 4 2 5 5 4 4 6 6 8 7 9 7 10 5
23 22 20 19 19 16 15 15 16 17 18 21 21 21 23 25 25 25 25 23 24 23 19 16 12 2 3 13 3 2 6 4 3 2 1 2 2 2 2 3 3 9 10 7 4 5 6
22 23 23 23 22 20 18 16 15 17 19 20 22 21 22 24 25 25 25 24 24 23 16 13 8 1 8 7 7 6 6 3 5 5 3 6 1 2 4 2 4 6 6 7 3 6 4
21 22 23 23 23 23 22 21 22 21 20 20 21 21 23 24 26 27 28 28 26 17 7 6 3 2 10 10 4 6 5 3 4 4 4 2 1 3 3 6 3 6 6 5 5 3 4
21 22 21 22 23 23 23 24 24 24 23 21 20 22 24 26 27 28 30 27 14 3 4 5 4 3 6 5 4 4 4 2 3 3 2 1 2 2 2 4 12 8 7 4 7 6 12
22 21 21 21 22 22 23 24 24 24 24 24 25 23 24 26 28 29 17 6 7 4 1 7 4 5 5 4 3 3 3 2 1 3 5 4 5 12 12 5 5 5 8 7 4 11 16
21 21 21 22 22 22 23 23 24 25 26 26 26 27 26 27 30 28 2 5 4 7 9 11 15 15 17 9 5 5 7 4 3 5 4 2 10 5 5 5 3 5 7 4 7 9 19
21 20 21 21 22 22 24 23 23 24 26 26 26 26 28 28 31 5 5 9 10 8 4 10 8 8 7 7 5 7 10 5 4 6 6 5 4 9 7 5 9 9 8 7 22 10 15
21 22 20 21 22 24 24 24 23 24 26 26 25 25 26 28 7 6 4 14 15 2 4 9 5 7 6 4 5 7 8 6 4 11 6 6 5 9 6 9 14 16 9 20 24 24 16
22 23 23 24 24 23 24 25 25 26 27 27 23 23 22 17 5 5 5 14 12 4 5 5 4 4 7 9 3 2 4 3 6 6 5 7 7 5 6 5 6 8 17 27 26 15 13
23 23 23 23 23 23 22 25 26 27 27 27 24 24 21 5 3 7 9 12 3 9 9 3 5 5 7 6 3 3 3 2 4 5 1 7 3 2 4 2 3 10 19 17 6 4 1
22 23 24 24 25 25 26 25 26 27 28 28 25 23 19 6 5 4 8 3 6 6 5 6 6 7 7 7 5 4 5 5 5 5 2 3 2 2 2 6 4 12 22 7 4 3 6
20 21 24 24 25 26 26 26 27 27 28 28 25 25 8 7 6 1 4 2 4 5 7 5 4 7 9 8 7 9 4 5 7 2 4 6 3 6 3 3 6 12 9 9 11 9 8
20 20 21 22 24 26 26 26 27 27 28 30 21 5 4 5 5 4 2 3 10 7 4 5 3 5 5 6 6 8 8 8 6 9 6 5 4 3 4 0 4 7 3 6 7 1 7
19 21 20 22 23 25 25 27 28 28 29 31 6 4 5 2 7 3 3 7 5 5 7 7 4 5 10 9 9 8 9 7 8 9 5 4 3 3 3 2 2 3 3 3 3 7 6
18 19 19 21 22 24 25 24 26 29 29 25 3 6 5 11 5 3 4 7 5 9 9 4 4 6 5 9 10 6 8 6 11 5 9 5 5 3 5 6 6 3 2 3 4 5 6
18 19 18 19 20 21 24 25 25 27 28 15 3 5 4 6 3 2 4 5 9 9 8 6 5 6 5 5 5 11 13 7 5 9 8 5 6 4 4 1 3 4 6 5 6 5 2
18 19 19 19 19 20 21 23 23 24 26 7 5 5 6 1 3 2 3 6 6 6 12 5 7 2 7 5 7 7 8 10 9 9 11 6 1 4 3 6 3 5 4 4 5 3 6
18 20 18 18 18 18 19 20 22 22 24 8 4 5 6 4 3 6 10 8 7 6 12 13 14 13 15 5 7 7 3 2 6 5 5 8 5 8 10 6 7 7 9 7 7 4 4
18 19 17 18 19 18 16 18 18 20 20 5 3 4 4 5 5 10 11 10 15 10 9 8 6 5 9 6 7 6 1 1 5 2 4 7 6 5 6 5 7 8 9 10 9 6 8
18 19 19 18 18 18 16 16 16 16 17 2 4 4 4 6 9 7 7 6 17 21 10 13 18 18 16 13 11 12 3 4 5 0 4 2 4 5 5 3 3 6 15 15 8 7 4
19 19 19 19 19 16 17 16 13 12 10 1 2 3 5 4 4 4 5 9 13 16 12 10 14 19 20 18 12 17 19 9 9 11 7 8 7 5 5 2 4 6 16 12 6 8 11
20 20 20 20 20 18 18 16 13 13 9 3 4 2 5 8 7 7 13 17 18 19 20 22 16 16 13 28 23 15 11 9 11 6 7 9 8 4 4 3 4 9 8 14 21 14 7
20 21 21 20 21 19 19 18 16 14 15 3 3 3 4 10 8 12 14 13 15 15 17 17 22 13 17 17 10 8 4 3 4 4 5 6 6 3 7 4 5 6 6 12 13 12 11
21 21 23 21 22 21 20 20 19 18 17 4 4 4 3 8 12 15 11 13 13 13 19 17 13 7 14 8 4 6 7 7 6 4 5 5 5 6 4 8 13 8 6 9 9 13 11
21 22 23 24 23 23 22 21 21 21 18 7 5 6 3 10 14 17 12 8 5 7 9 12 8 7 5 5 6 6 9 7 9 13 9 5 4 8 3 5 9 8 5 10 15 11 14
22 23 24 24 25 24 23 22 22 22 22 11 6 6 6 10 13 16 16 17 13 9 12 8 11 5 5 7 6 5 5 8 5 8 12 12 10 7 3 2 11 8 9 18 7 4 17
23 24 26 27 25 25 24 24 23 23 23 20 6 5 7 10 12 15 21 23 24 25 13 11 14 11 4 6 4 4 6 4 9 6 6 6 10 10 13 11 5 5 4 6 6 7 8
Wind_Direction
10 1 357 1 8 4 2 356 356 359 356 355 352 350 344 339 335 328 326 320 316 313 317 315 310 319 333 214 254 255 192 225 203 188 179 221 270 180 233 285 38 108 153 95 106 107 97
20 13 9 5 360 351 351 350 353 351 352 350 348 346 345 339 333 328 323 316 315 309 312 307 300 317 270 239 241 198 210 234 247 222 215 169 239 179 251 239 157 178 135 122 91 114 93
23 21 18 12 5 353 345 345 343 344 346 345 344 341 337 338 333 328 322 317 310 306 304 296 284 283 285 240 228 13 265 205 211 232 268 267 336 130 337 248 112 134 94 75 79 143 145
17 18 14 17 16 9 2 346 342 346 343 342 340 336 333 331 329 326 320 314 307 299 298 280 248 202 248 250 265 280 266 315 257 248 225 249 271 193 184 269 43 94 67 116 235 157 328
12 12 8 9 8 7 6 8 7 354 343 338 335 333 330 328 326 326 321 312 302 288 256 194 171 175 265 309 209 217 181 237 282 256 244 348 61 208 130 138 62 6 152 133 128 138 119
11 12 9 5 4 3 1 360 358 356 352 339 333 331 329 327 328 325 322 308 289 347 181 197 244 331 268 229 209 164 205 190 274 258 279 142 116 169 88 148 189 176 137 138 143 180 103
10 9 3 1 359 1 358 357 354 351 349 348 343 330 328 328 328 325 334 358 9 3 32 216 214 241 318 271 117 196 176 113 316 178 211 204 155 199 202 139 110 111 111 122 89 142 103
9 8 5 6 0 360 354 350 352 350 348 345 343 340 329 328 325 324 352 54 357 279 299 264 251 256 264 270 268 253 125 151 177 218 228 151 224 187 172 199 178 134 138 144 117 145 112
9 6 4 1 360 1 358 355 348 349 349 343 339 337 335 329 321 24 297 21 320 358 263 281 212 218 223 174 204 231 149 180 212 230 217 190 239 181 181 197 203 205 178 170 148 119 106
9 7 3 2 0 4 0 357 353 350 347 343 338 336 339 335 44 339 316 336 328 333 340 273 206 231 180 170 269 196 182 160 238 212 214 230 253 172 173 203 188 215 191 157 142 138 155
13 6 8 5 2 2 358 355 355 350 346 342 336 333 332 337 281 310 304 325 314 64 16 235 167 180 162 158 162 212 155 123 234 256 139 234 169 179 195 198 183 195 164 157 152 140 133
4 2 359 1 359 355 357 354 348 348 347 339 334 329 327 340 296 254 329 311 44 46 257 264 151 160 128 187 183 121 161 114 245 234 269 179 160 139 182 218 212 133 127 129 66 120 239
3 0 358 357 355 352 350 351 347 345 344 340 329 323 314 279 252 305 334 18 49 148 300 199 182 164 165 186 219 169 183 197 211 146 218 84 80 287 160 98 359 137 139 134 162 222 212
357 358 354 354 355 353 350 349 345 344 340 339 331 316 264 229 233 55 338 112 135 233 260 328 160 149 179 167 215 195 204 216 247 234 156 156 194 186 194 204 171 169 147 165 169 181 180
349 352 353 351 352 352 347 349 346 344 343 336 333 295 283 256 205 130 173 164 204 204 253 298 46 141 223 198 178 184 206 218 230 176 162 150 230 144 170 119 183 190 167 185 108 68 122
345 344 348 349 350 351 348 350 347 346 348 340 335 304 273 285 135 97 207 227 231 244 354 346 302 196 185 198 181 191 188 220 227 206 197 197 116 232 126 109 338 130 166 98 8 157 166
336 338 343 343 346 350 346 350 350 350 350 346 340 331 271 4 111 198 216 245 309 295 309 307 330 330 257 190 190 191 205 246 211 184 179 153 120 211 124 207 170 127 193 196 131 149 151
329 332 334 336 340 345 346 346 353 353 353 353 351 324 280 27 257 191 217 288 335 316 319 295 279 242 274 284 255 193 203 201 188 157 168 187 122 159 191 248 203 193 194 157 148 211 139
321 321 325 331 332 338 345 342 347 351 355 345 313 267 300 202 275 188 265 288 284 308 288 297 317 92 48 319 305 215 212 218 156 151 167 187 121 93 44 333 272 202 200 161 117 84 197
312 313 321 321 324 325 334 342 341 346 351 358 292 322 317 10 329 310 336 292 258 281 278 266 271 281 300 269 210 272 247 330 158 128 134 114 140 162 189 211 155 188 196 184 143 134 169
305 306 312 308 313 319 325 328 342 345 350 356 279 256 283 305 323 331 319 315 310 296 292 313 278 270 258 282 312 235 187 216 32 83 79 118 162 164 216 231 184 176 186 177 191 167 172
302 301 304 302 304 311 311 319 331 345 345 19 310 334 338 288 288 302 302 299 296 302 300 283 282 291 306 291 262 296 228 220 198 258 119 23 193 146 210 172 90 198 207 197 172 171 110
299 297 298 297 295 299 297 303 317 329 358 359 316 280 298 279 295 310 286 282 288 295 293 296 338 321 277 288 286 305 270 220 193 160 158 143 138 116 229 120 81 306 211 195 170 187 150
299 298 295 294 296 295 293 298 296 302 306 174 231 252 280 284 269 268 288 290 287 287 283 284 282 288 309 316 311 312 276 183 167 200 146 143 126 122 167 75 215 251 197 189 195 187 158
298 297 296 294 295 294 289 284 279 284 291 199 211 183 272 276 279 275 286 279 290 285 285 285 286 279 283 296 304 292 317 82 222 227 187 137 129 136 146 206 295 279 199 178 169 209 181
298 297 295 295 290 291 285 279 275 270 267 269 211 183 224 277 261 272 294 294 292 285 294 272 274 298 318 246 205 230 217 180 177 183 200 118 109 133 139 167 218 210 215 141 95 224 185
297 296 294 292 289 288 284 277 270 270 269 256 238 185 208 269 267 265 259 250 270 293 280 304 306 338 329 225 220 215 243 181 162 170 170 174 84 184 139 212 276 244 196 136 178 227 175
294 295 293 290 288 284 282 277 271 266 262 263 241 192 207 263 266 265 263 270 268 252 262 297 324 254 237 224 197 200 232 211 141 177 173 170 164 186 105 98 264 199 150 175 200 177 181
289 292 292 289 284 282 279 276 272 264 261 257 246 234 212 244 279 285 268 259 251 239 254 256 247 268 272 299 205 267 259 171 156 191 175 202 186 178 185 206 215 247 204 199 169 152 164